Regional Weather Roundup
Issued by NWS

Home | Current Version | Previous Version | Graphics & Text | Print | Product List | Glossary On
Versions: 1 2 3 4 5 6 7 8 9 10 11 12 13 14 15 16 17 18 19 20 21 22 23 24 25 26 27 28 29 30 31 32 33 34 35 36 37 38 39 40 41 42 43 44 45 46 47 48 49 50
555
ASUS43 KFSD 072302
RWRSD

WEATHER ROUNDUP FOR SOUTH DAKOTA
NATIONAL WEATHER SERVICE SIOUX FALLS SD
500 PM CST SUN FEB 07 2016

NOTE: "FAIR" INDICATES FEW OR NO CLOUDS BELOW 12,000 FEET WITH NO
SIGNIFICANT WEATHER AND/OR OBSTRUCTIONS TO VISIBILITY.


SDZ001>005-009-010-012>017-080000-
NORTHWEST AND NORTH CENTRAL SOUTH DAKOTA

CITY           SKY/WX    TMP DP  RH WIND       PRES   REMARKS
BUFFALO          N/A     37  11  34 NW43G54   30.13R
FAITH            N/A     35  12  38 NW37G56   30.13R WCI  21
MOBRIDGE       CLOUDY    37  18  46 NW43G56   29.98R
$$

SDZ012>016-024>037-041>051-057-063-072>074-080000-
SOUTHWEST AND SOUTH CENTRAL SOUTH DAKOTA

CITY           SKY/WX    TMP DP  RH WIND       PRES   REMARKS
RAPID CTY ARPT SUNNY     38   6  26 NW38G49   30.18R
PIERRE         MOCLDY    38  17  42 NW36G49   30.04R
CUSTER         MOSUNNY   26   1  34 NW22G46   30.17R WCI  12
ELLSWORTH AFB  SUNNY     37   5  25 NW36G53   30.17
PHILIP         CLEAR     38  18  44 NW45G61   30.11R
PINE RIDGE     MOSUNNY   39   3  22 NW29G46   30.20R
WINNER         CLOUDY    38  21  50 NW32G40   30.06R
$$

SDZ004>011-016>023-039-040-080000-
NORTHEAST SOUTH DAKOTA

CITY           SKY/WX    TMP DP  RH WIND       PRES   REMARKS
ABERDEEN       CLOUDY    29  19  66 NW26G38   29.95R WCI  14
WATERTOWN      CLOUDY    25  16  68 NW33G48   29.85R WCI   7
BROOKINGS      FLURRIES  28  22  78 NW31G37   29.84  WCI  12
SISSETON         N/A     26  18  71 N35G43    29.85R WCI   9
$$

SDZ017-020-022-023-036>040-048>070-080000-
SOUTHEAST SOUTH DAKOTA

CITY           SKY/WX    TMP DP  RH WIND       PRES   REMARKS
SIOUX FALLS    CLOUDY    31  21  66 NW32G44   29.89R WCI  16
HURON          FLURRIES  31  23  72 NW26G38   29.94R WCI  17
MITCHELL       CLOUDY    34  25  69 NW22G40   29.98R WCI  22
YANKTON        CLOUDY   N/A N/A N/A NW36G43   29.96R
$$

ABBREVIATIONS USED IN REMARKS
   TC - TEMPERATURE IN CELSIUS
  WCI - WIND CHILL INDEX
   HX - HEAT INDEX
  VSB - VISIBILITY





USA.gov is the U.S. government's official web portal to all federal, state and local government web resources and services.